Погода в Шадринске

Погода в Шадринске : погода сейчас, прогноз погоды и архив. Всё, что Вы хотите узнать о погоде в Шадринске!

Хотите узнать прогноз погоды в Шадринске? Тогда Вам сюда: Погода в Шадринске

Поиск расширенной информации на нашем сайте:

Другие новости

Новости СМИ2

Главная страница сайта

Новости сайта

03.07.2017

Напоминаем, что на нашем специализированном сайте Метеоцентр.Азия вы можете получить высокодетализированные автоматические прогнозы погоды по пунктам России, СНГ и мира в авиационном формате (включающие направление и скорость ветра, видимость, явления погоды, количество и форму облачности, нижнюю и верхнюю границу облачности).


Погода в Шадринске - сегодня

Время (UTC), дата Ветер
(°,м/с) 
Видим.   Явления Облачность Т
(°С)
Тd
(°С)
f(%) Тe
(°С)
Pmin
(гПа)
dP
(гПа)
Po
(мм)
O2
(г/м3)
Тmin Tmax R s Состояние
почвы
03 17.08.18 220 (ЮЗ) 10 км    9/9 600 м кучево-дожд. 
[Cb cap]
+17.8 +13.5 76 +24  1008.4  -0.1  749  280  +16.7    0.3    влажная 
06 17.08.18 260 (З) 10 км    9/9 600 м кучево-дожд. 
[Cb cap]
+20.5 +14.5 68 +28  1007.7  -0.6  748  277           
12 17.08.18 310 (СЗ) 5{12}  10 км    9/9 600 м кучево-дожд. 
[Cb cap]
+17.9 +11.9 68 +22  1010.4  1.9  750  281           
18 17.08.18 320 (СЗ) 10 км    9/8 600 м кучево-дожд., верхняя 
[Cb cap|Ci sp]
+13.9 +10.3 79 +16  1012.6  1.3  751  286           
21 17.08.18 290 (З) 10 км    4/3 600 м верхняя 
[Sc|Ci sp]
+10.8 +8.1 83 +11  1013  0.3  752  290           
00 18.08.18 270 (З) 10 км    4/3 600 м верхняя 
[Sc|Ci sp]
+8.4 +7.1 92 +8  1013.7  0.6  752  293           
03 18.08.18 290 (З) 10 км    4/3 600 м верхняя 
[Sc|Ci sp]
+11 +8.5 85 +10  1014.6  753  290  +8.3        сухая 
06 18.08.18 330 (СЗ) 4{10}  10 км    8/6 600 м кучево-дожд., верхняя 
[Cb cap|Ci sp]
+16.4 +7.2 54 +16  1014.8  0.4  753  285           
09 18.08.18 340 (С) 5{11}  10 км    9/8 600 м кучево-дожд., верхняя 
[Cb cap|Ci sp]
+15.7 +6.5 54 +15  1015.3  0.5  754  286           
12 18.08.18 350 (С) 3{10}  10 км    8/6 600 м кучево-дожд., верхняя 
[Cb cap|Ci sp]
+16.4 +6.7 53 +17  1015.9  0.6  754  286           
18 18.08.18 350 (С) 10 км    10/10 600 м кучево-дожд. 
[Cb cap]
+12.8 +7.8 72 +14  1017.7  0.5  755  289           
21 18.08.18 350 (С) 10 км    10/10 600 м кучево-дожд. 
[Cb cap]
+12.1 +8.3 78 +12  1017.3  -0.4  755  290           
00 19.08.18 тихо ()   10 км    8/6 600 м кучево-дожд., средняя, верхняя 
[Cb cap|Ac trans|Ci sp]
+8.7 +7 89 +9  1017.9  0.4  755  294           
03 19.08.18 010 (С) 10 км    8/6 600 м кучево-дожд., средняя 
[Cb cap|Ac trans]
+10.5 +6.9 78 +12  1018.4  0.6  756  292  +8.2        сухая 
06 19.08.18 350 (С) 10 км    9/9 600 м кучево-дожд. 
[Cb cap]
+13.8 +6.1 60 +13  1017.7  -0.6  755  289           
09 19.08.18 350 (С) 10 км    9/9 600 м кучево-дожд. 
[Cb cap]
+14.5 +5.4 54 +15  1016.9  -0.7  755  288           
12 19.08.18 360 (С) 10 км    9/9 600 м кучево-дожд. 
[Cb cap]
+16.3 +6.4 52 +17  1016.3  -0.6  754  286           
18 19.08.18 280 (З) 10 км  {ливн. осадки}  10/10 600 м кучево-дожд. 
[Cb cap]
+11.3 +9.5 89 +12  1016.7  -0.3  754  290           
21 19.08.18 020 (С) 10 км    10/10 600 м кучево-дожд. 
[Cb cap]
+11.6 +9.6 88 +14  1015.4  -1.2  754  290           
00 20.08.18 270 (З) н/о    н/о 
+9.8 +7.9 88 +11  1014.9  -0.6  753  292           
03 20.08.18 320 (СЗ) 10 км    9/9 600 м кучево-дожд. 
[Cb cap]
+10.8 +8.6 86 +12  1014.6  -0.3  753  290  +9.3        влажная 
06 20.08.18 360 (С) 10 км    9/9 600 м кучево-дожд. 
[Cb cap]
+14.7 +9 69 +15  1013.5  -1  752  286           
09 20.08.18 360 (С) 10 км    9/9 600 м кучево-дожд. 
[Cb cap]
+17.4 +8.9 57 +18  1012.1  -1.3  751  283           
18 20.08.18 тихо ()   10 км    6/3 600 м верхняя 
[Sc|Ci sp]
+8.4 +6.7 89 +8  1011.4  -0.4  750  292           
21 20.08.18 250 (З) 10 км    6/4 600 м верхняя 
[Sc|Ci sp]
+8.7 +7.5 92 +10  1010.5  -0.8  750  291           
Время (UTC), дата Ветер
(°,м/с) 
Видим.   Явления Облачность Т
(°С)
Тd
(°С)
f(%) Тe
(°С)
Pmin
(гПа)
dP
(гПа)
Po
(мм)
O2
(г/м3)
Тmin Tmax R s Состояние
почвы

Для получения пояснительной информации подведите курсор к названию столбца.

ПОГОДА в Шадринске - архив

Всё, что Вы хотите узнать о погоде в Шадринске - удобно и подробно!

Выберите нужную дату (начиная с 1 января 2015* года) и нажмите кнопку "Найти".
Будут отображены архивные сводки погоды по пункту Шадринск, начиная с указанной даты.


Отображать данные в формате CSV (для использования в таблицах Excel)


Внимание! Наш архив погоды предназначен исключительно для личного некоммерческого использования в познавательных целях. Если Вам необходимы официальные справки о состоянии погоды (для производственных, юридических, коммерческих и т.п. целей), обращайтесь в органы Росгидромета.

*Примечание: данная дата относится к архиву по метеостанциям СССР (Россия, СНГ, Балтия).
Архив по метеостанциям Зарубежной Европы и Азии (кроме Китая) хранится 10 дней, по другим регионам земного шара (Китай, Африка, Америка, Австралия, Океания) - 1 день.

Шадринск - район местоположения метеостанции


Название, широта, долгота, высота метеостанции:
Шадринск 56.1°ш. 63.6°д. 89 м над ур. моря [Российская Федерация]

Дополнительная информация

В oтличие oт бoльшинства пoгoдных сайтoв мы публикуем пoдрoбную метеoинфoрмацию в детальнoм прoфессиoнальнoм фoрмате.

Характеристики температуры и влажнoсти вoздуха измеряются на высoте 2 м в тени вдали oт зданий и деревьев.
Скoрoсть ветра измеряется на высoте 10 м (на урoвне рoста челoвека скoрoсть ветра ниже в 1.5-2 раза). Если метеoстанция нахoдится в гoрoде или в лесу, тo скoрoсть ветра занижена на 2-4 м/с пo сравнению с oткрытым местoм. Скoрoсть ветра над акватoриями крупных рек и oзёр, а также на вершинах хoлмoв на 2-5 м/с выше, чем в oбычных услoвиях.
Атмoсфернoе давление в разных тoчках местнoсти мoжет значительнo oтличаться oт давления на метеoстанции, в зависимoсти oт услoвий рельефа (при пoдъёме на 10 м давление пoнижается примернo на 1 мм рт.ст.).